User: anonymous   Login
Location: Haliburton Scout Reserve
(45.0900°N, 78.3200°W)
Time: 18:21:39
(UTC-05:00)
Language:

RS-15 - Orbit

View from above orbital plane
View from above orbital plane
View from above satellite
View from above satellite

Ground track
Ground track

The orbit data is extracted from the following two-line orbital elements,

1 23439U 94085A   23332.43303002 -.00000030  00000-0  35426-3 0  9992
2 23439  64.8203  10.0503 0157074 181.1526 178.9056 11.27575614190840
Epoch (UTC): 28 November 2023 10:23:33
Eccentricity: 0.0157074
inclination: 64.8203°
perigee height: 1890 km
apogee height: 2154 km
right ascension of ascending node: 10.0503°
argument of perigee: 181.1526°
revolutions per day: 11.27575614
mean anomaly at epoch: 178.9056°
orbit number at epoch: 19084

The dashed part of the orbit path shows where the satellite is in the earth's shadow,  

DLR